Volver al catálogo

STARLINK-36781

ActivoComunicacionesVLEO
NORAD 67931·PAYLOAD·🇺🇸 United States

Lanzado Feb 22, 2026 desde Vandenberg Space Force Base

Loading…

Próximos Pases (próximas 24 horas)

TLE

ActualizadoSource: CelesTrak SupGP

Época: Sep 15, 2026, 03:36 UTC

1 67931C 26036AD  26258.15048611 -.00020588  00000+0 -74586-3 0  2587
2 67931  43.0017 255.0384 0001281 266.7921 337.8408 15.27582167    13

Sigue STARLINK-36781 en tiempo real con AllMySat

Download on the App Store